Jackpot

Texas Poker Multi Jackpot System

Kini Telah hadir Jackpot SUPER ROYAL FLUSH

Kini Telah hadir Jackpot 2000 (khusus table VIP keatas).

Ikutilah global jackpot yang tersedia di system kami, dengan system jackpot terbaru dan pertama di indonesia, anda dapat membeli jackpot dengan harga 100 rupiah saja dan menangkan hadiahnya hingga puluhan juta rupiah.

Jackpot bukanlah suatu keharusan untuk dibeli, namun kami memberikan suatu fitur tambahan untuk member tercinta dari www.wirapoker.com.

Terdapat tiga pilihan harga jackpot yang bisa anda beli yaitu :100,500,1000 dan 2000(khusus table VIP Keatas) rupiah.

Hadiah dari Multi jackpot system www.wirapoker.com

  1. full house x 10 harga jackpot yang anda beli.
      (contoh:anda membeli 1000 maka:1000 X10 = 10.000)
  2. four of kind x 250 harga jackpot yang anda beli
      (contoh:anda membeli 1000 maka:1000 X250 = 250.000)
  3. Straight flush x 1200
      (contoh:anda membeli 1000 maka:1000 X1200 = 1.200.000)
  4. Royal flush x 10000 harga jackpot yang anda beli
      (contoh:anda membeli 1000 maka:1000 X10000 = 10.000.000)
  5. SUPER ROYAL FLUSH x 30000 harga jackpot yang anda beli
      (contoh:anda membeli 1000 maka:1000 X30000 = 30.000.000)

Kondisi kartu

  1. full house adalah kondisi kartu dimana kartu anda dan kartu tengah dengan total 7 kartu bisa mendapatkan nilai 5 kartu dengan kombinasi 1 tris(three of kind) dan 1 pair, contoh 3 kartu 10 dan 2 kartu 5
  2. Four of kind adalah kondisi kartu dimana kartu anda dan kartu tengah dengan total 7 kartu bisa mendapatkan nilai 5 kartu dengan kombinasi 4 kartu yang sama jumlah dan 1 kartu apapun juga contoh anda mendapatkan 4 buah kartu angka 3 dan 1 kartu apapun.
  3. Staright flush adalah kondisi kartu dimana kartu anda dan kartu tengah dengan total 7 kartu bisa mendapatkan nilai 5 kartu dengan kombinasi seri / staright dengan kembang yang sama contoh : urutan kartu dari angka 5, 6, 7, 8 , 9 10 dengan kembang yg sama misalnya as hati
  4. Royal flush adalah kondisi kartu dimana kartu anda dan kartu tengah dengan total 7 kartu bisa mendapatkan nilai 5 kartu dengan kombinasi seri / staright dengan kembang yang sama tetapi kartu tersebut haruslah dimulai dari 10. contoh 10, Queen, Jack, King dan aces dengan kembang yang sama
  5. Super Royal flush adalah kondisi kartu dimana Kedua kartu anda digabung dengan 3 kartu pertama meja haruslah royal flush. contoh kartu anda 10,Queen kembang sama dan 3 kartu pertama meja adalah Jack, King dan aces dengan kembang yang sama

Demikian adalah penjelasan dari Multi Jackpot www.wirapoker.com terima kasih dan selamat bermain salam hoki dari kami

Texas Poker Jackpot Winner

TOP SUPER ROYAL FLUSH
No.TanggalNamaPriceWin
121/11 10:49RAHMATWJ12Super Royal flush6,000,000
221/11 09:47LIANI17Super Royal flush15,000,000
321/11 04:38BLACKMBA01Super Royal flush15,000,000
421/11 04:11DWTSPED99Super Royal flush6,000,000
521/11 02:06KODAM09Super Royal flush15,000,000
TOP ROYAL FLUSH
No.TanggalNamaPriceWin
121/11 14:57DEMPAK17Royal flush2,000,000
221/11 14:51DZENIRoyal flush2,000,000
321/11 14:36G4DNY9671E06Royal flush1,000,000
421/11 14:34REACTION7Royal flush2,000,000
521/11 13:59MUHRAZELRoyal flush10,000,000
TOP STRAIGHT FLUSH
No.TanggalNamaPriceWin
121/11 15:16PALERIA1Straight Flush600,000
221/11 15:14ANDIR13Straight Flush600,000
321/11 15:14UX3FXF0BUNStraight Flush240,000
421/11 15:11RH1N4Straight Flush60,000
521/11 15:09DEEWAA9Straight Flush2,400,000
LATEST JACKPOT
No.TanggalNamaPriceWin
121/11 15:17BC3C2F98Full House5,000
221/11 15:17RANTY93Full House2,000
321/11 15:17REMI4442Four Of A Kind125,000
421/11 15:17CSS16Full House10,000
521/11 15:17MUNQVSM48LFull House500
621/11 15:17CHOTOTFull House20,000
721/11 15:17USTADZZZZFull House20,000
821/11 15:17CFWVVZP00BFull House2,000
921/11 15:17KAMILEK99Four Of A Kind50,000
1021/11 15:17CEK_DUWITFour Of A Kind25,000
1121/11 15:17BONEN1987Full House1,000
1221/11 15:17KANGTELOR7Full House1,000
1321/11 15:17UPP5Full House5,000
1421/11 15:17ALWICUYFull House1,000
1521/11 15:17B0MBER17Full House10,000
1621/11 15:17RIO0000000Full House5,000
1721/11 15:17MENGGLOKFull House5,000
1821/11 15:17AANTEMPEFull House1,000
1921/11 15:17KONCEK2112Four Of A Kind25,000
2021/11 15:17ATAYA11Full House5,000
2121/11 15:17SHBN7JGXMDFull House5,000
2221/11 15:17BARAELLOYZFull House10,000
2321/11 15:17BABYBOOM2Full House10,000
2421/11 15:17IMAM1789Full House10,000
2521/11 15:17M4Y4B0JAW4Full House20,000
2621/11 15:17REVOOOO888Full House2,000
2721/11 15:17E16A66D6Full House1,000
2821/11 15:17NGARAMONAFull House1,000
2921/11 15:17JERRYWONGFull House5,000
3021/11 15:17INYI4K_01Full House1,000
3121/11 15:17KIENQUANFull House2,000
3221/11 15:17DEWDEW4Full House2,000
3321/11 15:17USMAN4545Full House2,000
3421/11 15:17S14P_805Full House5,000
3521/11 15:17HGVFRDTSFull House1,000
3621/11 15:17B17305BRF7LPHGAFull House5,000
3721/11 15:17ARROW168Full House5,000
3821/11 15:17DADANPOBIFull House1,000
3921/11 15:17ARJUNA_NYAFull House2,000
4021/11 15:17TORUANG101Full House2,000
4121/11 15:17MADIN17Four Of A Kind25,000
4221/11 15:17E856DLOSW8Full House1,000
4321/11 15:17SALIDUTFull House2,000
4421/11 15:17PHANDI503Four Of A Kind125,000
4521/11 15:17LAMETQQFull House1,000
4621/11 15:17WIJAYASWIMFull House2,000
4721/11 15:17T4BAH87Full House5,000
4821/11 15:17AONGG13Full House2,000
4921/11 15:17KONDOM53Full House10,000
5021/11 15:16HI2Full House5,000

Domino Multi Jackpot System

Ikutilah global jackpot yang tersedia di system kami, dengan system jackpot terbaru dan pertama di indonesia, anda dapat membeli jackpot dengan harga 100 rupiah saja dan menangkan hadiahnya hingga puluhan juta rupiah.

Jackpot bukanlah suatu keharusan untuk dibeli, namun kami memberikan suatu fitur tambahan untuk member tercinta dari www.wirapoker.com.

Terdapat tiga pilihan harga jackpot yang bisa anda beli yaitu :100,500 dan 1000 rupiah.

Hadiah dari Multi jackpot system www.wirapoker.com

  1. Murni Kecil x 50 harga jackpot yang anda beli.
      (contoh:anda membeli 1000 maka:1000 X 50 = 50.000)
  2. Murni Besar x 50 harga jackpot yang anda beli
      (contoh:anda membeli 1000 maka:1000 X 50 = 50.000)
  3. BALAK x 100 harga jackpot yang anda beli
      (contoh:anda membeli 1000 maka:1000 X 100 = 100.000)
  4. ENAM DEWA x 6666 harga jackpot yang anda beli
      (contoh:anda membeli 1000 maka:1000 X 6666 = 6.666.000)

Demikian adalah penjelasan dari Multi Jackpot www.wirapoker.com terima kasih dan selamat bermain salam hoki dari kami

Domino Jackpot Winner

TOP ENAM DEWA
No.TanggalNamaPriceWin
121/11 10:42ENOLIAmurni enam6,666,000
221/11 09:19KES_RAKmurni enam6,666,000
321/11 08:51B72A8394murni enam666,600
421/11 08:45MAGNET34murni enam6,666,000
521/11 08:19UJABHIDENGmurni enam6,666,000
TOP BALAK
No.TanggalNamaPriceWin
121/11 15:15S4M5UN999balak50,000
221/11 15:11D506D977balak50,000
321/11 15:10SU081289balak100,000
421/11 15:09GEICERDASbalak50,000
521/11 15:08FIJI77balak10,000
LATEST JACKPOT
No.TanggalNamaPriceWin
121/11 15:17BASRIL66murni kecil50,000
221/11 15:16BIGO_868murni kecil5,000
321/11 15:16DENDIBRE11murni besar50,000
421/11 15:16MULTI88664murni kecil5,000
521/11 15:15DE6C9E30murni besar5,000
621/11 15:15S4M5UN999balak50,000
721/11 15:15D506D977murni kecil25,000
821/11 15:15ENTOTNYUmurni kecil25,000
921/11 15:15TOGEL1209murni besar5,000
1021/11 15:14YOYOYOYO66murni besar25,000
1121/11 15:14H47G1JCNKYmurni kecil25,000
1221/11 15:12EVADWIYSmurni kecil25,000
1321/11 15:11AKONKGUANmurni besar50,000
1421/11 15:11ZZZZZ009murni besar50,000
1521/11 15:11D506D977balak50,000
1621/11 15:10SU081289balak100,000
1721/11 15:09GEICERDASbalak50,000
1821/11 15:09RITAJONESmurni besar50,000
1921/11 15:09PRIAPKmurni kecil25,000
2021/11 15:08SESE123murni besar50,000
2121/11 15:08FIJI77balak10,000
2221/11 15:08TYTINbalak50,000
2321/11 15:08ARIA1490murni kecil50,000
2421/11 15:07REVELINOmurni besar50,000
2521/11 15:06ICALLABOmurni besar50,000
2621/11 15:06LIKSUmurni kecil5,000
2721/11 15:05KE123OKmurni kecil50,000
2821/11 15:05BARJO123murni kecil50,000
2921/11 15:05LUNALIAmurni kecil5,000
3021/11 15:05PRIAPKmurni kecil25,000
3121/11 15:02BARMO12balak50,000
3221/11 15:02KENCUR31murni besar25,000
3321/11 15:02PUJUR1234lucky9910,000
3421/11 15:01SUKOYYYmurni besar50,000
3521/11 15:01IMELDA727murni kecil50,000
3621/11 15:00REVELINObalak100,000
3721/11 15:00INDRA418murni besar5,000
3821/11 15:00BAWOK19lucky9925,000
3921/11 14:59JIPI1205murni kecil5,000
4021/11 14:58KE123OKmurni kecil50,000
4121/11 14:58FETZUmurni besar50,000
4221/11 14:57G454KKKmurni besar25,000
4321/11 14:57MERON1234murni besar50,000
4421/11 14:57ENOLIAmurni kecil50,000
4521/11 14:56AKONKGUANmurni besar50,000
4621/11 14:56ZZZZZ009murni kecil50,000
4721/11 14:56PRIAPKmurni kecil25,000
4821/11 14:55SONNEOmurni kecil50,000
4921/11 14:55PUGALU063lucky9925,000
5021/11 14:54KENCUR31murni kecil25,000

Ceme Multi Jackpot System

Jackpot dilihat dari gabungan kartu pemain dengan kartu bandar. Bandar harus membeli jackpot sebanyak jumlah player yang sedang duduk. Sebagai contoh bila terdapat 3 pemain duduk bermain, dan bandar memutuskan untuk membeli jackpot Rp 1.000, maka pada periode tersebut bandar akan membeli jackpot sebanyak 3xRp1.000 = Rp3.000.

Jackpot bukanlah suatu keharusan untuk dibeli, namun kami memberikan suatu fitur tambahan untuk member tercinta dari www.wirapoker.com.

Terdapat tiga pilihan harga jackpot yang bisa anda beli yaitu :100,500 dan 1000 rupiah.

Hadiah dari Multi jackpot system www.wirapoker.com

  1. Murni Kecil x 50 harga jackpot yang anda beli.
      (contoh:anda membeli 1000 maka:1000 X 50 = 50.000)
  2. Murni Besar x 50 harga jackpot yang anda beli
      (contoh:anda membeli 1000 maka:1000 X 50 = 50.000)
  3. BALAK x 200 harga jackpot yang anda beli
      (contoh:anda membeli 1000 maka:1000 X 200 = 200.000)
  4. ENAM DEWA x 6666 harga jackpot yang anda beli
      (contoh:anda membeli 1000 maka:1000 X 6666 = 6.666.000)

Demikian adalah penjelasan dari Multi Jackpot www.wirapoker.com terima kasih dan selamat bermain salam hoki dari kami

Ceme Jackpot Winner

TOP ENAM DEWA
No.TanggalNamaPriceWin
121/11 15:12BADOT36murni enam3,333,000
221/11 14:50EAP87murni enam666,600
321/11 14:50IMMSVmurni enam3,333,000
421/11 14:41WINANDAR02murni enam3,333,000
521/11 14:40YETRI20murni enam6,666,000
TOP BALAK
No.TanggalNamaPriceWin
121/11 15:17LILAH998balak200,000
221/11 15:17ABDUL026balak200,000
321/11 15:17BETT13balak200,000
421/11 15:17TRAM001balak200,000
521/11 15:17JHECKY88balak200,000
LATEST JACKPOT
No.TanggalNamaPriceWin
121/11 15:17LILAH998balak200,000
221/11 15:17THCLS111murni kecil50,000
321/11 15:17ABDUL026balak200,000
421/11 15:17NGRECO9murni kecil25,000
521/11 15:17HELZImurni kecil25,000
621/11 15:17BETT13balak200,000
721/11 15:17TRAM001balak200,000
821/11 15:17JHECKY88balak200,000
921/11 15:16P4174N12murni besar5,000
1021/11 15:16GLPRO76murni besar50,000
1121/11 15:16MVJ18BZM6Tmurni besar25,000
1221/11 15:16ROMPI90murni besar25,000
1321/11 15:16KOINAHmurni besar50,000
1421/11 15:16JAVAS15balak200,000
1521/11 15:16UDANG1Jmurni besar5,000
1621/11 15:16AB4R88murni kecil25,000
1721/11 15:15JAVAS15murni besar50,000
1821/11 15:15MITOBOMbalak100,000
1921/11 15:15PIKET26murni besar50,000
2021/11 15:15ANANDANGGAmurni kecil5,000
2121/11 15:15HKYCOYmurni kecil50,000
2221/11 15:15KLEP49murni besar50,000
2321/11 15:15EXCA71murni besar50,000
2421/11 15:15REJA03murni kecil25,000
2521/11 15:15DENZEL24balak200,000
2621/11 15:14CIPEDE2murni besar25,000
2721/11 15:14KAKA783murni besar50,000
2821/11 15:14WOWOO16murni besar50,000
2921/11 15:13PQR21murni besar50,000
3021/11 15:13PQR21murni besar50,000
3121/11 15:13CEKET1234murni kecil5,000
3221/11 15:13UVENTIRAmurni besar5,000
3321/11 15:13SALTIGRADAmurni kecil50,000
3421/11 15:13KEYNOH19balak200,000
3521/11 15:13TUKANGSIPUmurni kecil5,000
3621/11 15:12BADOT36murni enam3,333,000
3721/11 15:12ENEmurni kecil5,000
3821/11 15:12MANDOVJAKmurni kecil50,000
3921/11 15:12T0PP4SW1Nmurni kecil25,000
4021/11 15:12ANTOVIOLAbalak200,000
4121/11 15:12KOLIHAMbalak200,000
4221/11 15:11EAP87murni kecil5,000
4321/11 15:11KLEP49murni kecil50,000
4421/11 15:11SIPPAKORNmurni kecil25,000
4521/11 15:11BLOCK43murni kecil50,000
4621/11 15:11DANK84murni kecil25,000
4721/11 15:11ONAM3murni kecil5,000
4821/11 15:11THEY44murni kecil25,000
4921/11 15:11ALLENSIA14balak20,000
5021/11 15:11SCUPY555balak20,000